Regional Weather Roundup
Issued by NWS State College, PA

Home | Current Version | Previous Version | Graphics & Text | Print | Product List | Glossary Off
Versions: 1 2 3 4 5 6 7 8 9 10 11 12 13 14 15 16 17 18 19 20 21 22 23 24 25 26 27 28 29 30 31 32 33 34 35 36 37 38 39 40 41 42 43 44 45 46 47 48 49 50

000
ASUS41 KCTP 241110
RWRCTP

REGIONAL WEATHER ROUNDUP
NATIONAL WEATHER SERVICE STATE COLLEGE PA
700 AM EDT SUN JUL 24 2016

Note: "fair" indicates few or no clouds below 12,000 feet with no
significant weather and/or obstructions to visibility.

* = STATION THAT DOES NOT REPORT PRECIPITATION /E.G. RAIN...SNOW...ETC/
    THUNDER OR FOG.

PAZ002>004-007>009-013>016-020>023-029>032-241200-
WESTERN PENNSYLVANIA

CITY           SKY/WX    TMP DP  RH WIND       PRES   REMARKS
ERIE           CLEAR     65  60  84 S5        30.01S
MEADVILLE      CLEAR     61  57  87 S3        30.04S
FRANKLIN*      CLEAR     61  55  82 CALM      30.08R
NEW CASTLE     FAIR      63  61  93 NE3       30.04S
BEAVER COUNTY  NOT AVBL
BUTLER*        CLEAR     63  59  88 NE5       30.07S
PITTSBURGH INT PTCLDY    69  65  86 CALM      30.04R
PITTSBURGH     FOG       69  67  93 SE6       30.04R VSB 1/4
INDIANA*       PTCLDY    64  63  94 CALM      30.09S
LATROBE        PTCLDY    64  64 100 CALM      30.05F
WASHINGTON CO* CLOUDY    66  64  94 CALM      30.05S VSB 1/2
$$

PAZ004>006-010>012-017>019-024>028-033>037-041-042-045-046-049>053-241200-
CENTRAL PENNSYLVANIA

CITY           SKY/WX    TMP DP  RH WIND       PRES   REMARKS
BRADFORD       CLEAR     56  53  90 CALM      30.09S
DUBOIS         CLEAR     62  58  86 E3        30.07R
CLEARFIELD     CLEAR     61  57  87 CALM      30.08R
JOHNSTOWN      CLEAR     67  64  90 CALM      30.10S FOG
ALTOONA        CLEAR     64  61  90 S3        30.08R FOG
STATE COLLEGE  CLEAR     64  57  77 CALM      30.07R
WILLIAMSPORT   MOSUNNY   66  56  70 NW3       30.03R
SELINSGROVE    SUNNY     63  62  97 CALM      30.04R
FT INDIANTOWN  SUNNY     66  60  80 CALM      30.01R
CAPITAL CITY   SUNNY     68  61  78 SW3       30.01R
HARRISBURG     MOSUNNY   71  65  81 CALM      30.01R
YORK           CLEAR     65  62  90 CALM      30.02R
$$

PAZ038>040-043-044-047-048-054-055-060>062-067>071-241200-
EASTERN PENNSYLVANIA

CITY           SKY/WX    TMP DP  RH WIND       PRES   REMARKS
SCRANTON       SUNNY     66  58  75 CALM      30.03R
MOUNT POCONO   MOSUNNY   67  32  27 N6        30.06R
ALLENTOWN      PTSUNNY   70  62  76 CALM      30.01R
QUAKERTOWN*    MOSUNNY   66  63  88 CALM      30.02R
READING        SUNNY     68  64  87 CALM      30.00R
LANCASTER      FOG       65  65 100 CALM      30.02R VSB<1/4
COATESVILLE    SUNNY     68  63  83 NW3       30.03R
POTTSTOWN      MOSUNNY   67  64  90 SW3       30.02R
BLUE BELL      MOSUNNY   64  64 100 CALM      29.99R
DOYLESTOWN     PTSUNNY   67  62  84 CALM      30.00R
WILLOW GROVE   NOT AVBL
NORTH PHILA    MOSUNNY   74  66  76 CALM      30.00R
PHILADELPHIA   PTSUNNY   76  64  66 NW5       29.99R
$$




USA.gov is the U.S. government's official web portal to all federal, state and local government web resources and services.